Regional Weather Roundup
Issued by NWS

Home | Current Version | Previous Version | Graphics & Text | Print | Product List | Glossary Off
Versions: 1 2 3 4 5 6 7 8 9 10 11 12 13 14 15 16 17 18 19 20 21 22 23 24 25 26 27 28 29 30 31 32 33 34 35 36 37 38 39 40 41 42 43 44 45 46 47 48 49 50

000
ASUS43 KMPX 250910
RWRMN
WEATHER ROUNDUP FOR MINNESOTA
NATIONAL WEATHER SERVICE TWIN CITIES/CHANHASSEN MN
300 AM CST SUN JAN 25 2015


NOTE: "FAIR" INDICATES FEW OR NO CLOUDS BELOW 12,000 FEET WITH NO
SIGNIFICANT WEATHER AND/OR OBSTRUCTIONS TO VISIBILITY. N/A MEANS
CURRENT SKY AND/OR WEATHER CONDITIONS ARE NOT AVAILABLE.

MNZ060>063-068>070-251000-
   Twin Cities Metro

CITY           SKY/WX    TMP DP  RH WIND       PRES   REMARKS
TWIN CITIES    CLOUDY    30  26  85 N15       29.78R WCI  19
ST PAUL        CLOUDY    31  26  82 NE13      29.79R WCI  21
CRYSTAL        CLOUDY    30  23  75 NE12      29.78R WCI  20
BLAINE         CLOUDY    30  23  74 N15       29.79R WCI  19
LAKEVILLE      CLOUDY    30  28  93 NE15G23   29.74R WCI  19
EDEN PRAIRIE   CLOUDY    31  27  85 NE14      29.76R WCI  21
SOUTH ST PAUL  CLOUDY    32  27  82 NE10G17   29.77R WCI  23
LAKE ELMO      CLOUDY    32  27  80 NE14G20   29.79R WCI  22
$$
MNZ001>005-007-008-013>017-022>024-027-028-251000-
   Northwest Minnesota

CITY           SKY/WX    TMP DP  RH WIND       PRES   REMARKS
BEMIDJI        CLOUDY    15   9  76 NE8       29.89R WCI   5
HALLOCK        CLEAR     16   7  67 NE9       30.00R WCI   4
ROSEAU         PTCLDY    10   5  79 NE14      29.98R WCI  -5
WARROAD        PTCLDY    10   3  72 NE9       29.99R WCI  -2
THIEF RVR FALL CLOUDY    16   9  73 NE12      29.93R WCI   3
CROOKSTON      CLOUDY    19  12  73 NE7       29.95R WCI  10
FOSSTON        CLOUDY    14   9  79 NE7       29.91R WCI   4
DETROIT LAKES  CLOUDY    28  27  93 NW5       29.87R WCI  23
MOORHEAD       MOCLDY    23  21  93 N10       29.91R WCI  12
PARK RAPIDS    CLOUDY    23  14  68 N7        29.85R WCI  15
MAHNOMEN       CLOUDY    19  15  81 NE8       29.88R WCI   9
$$
MNZ006-009>011-018-025>026-251000-
   North Central Minnesota

CITY           SKY/WX    TMP DP  RH WIND       PRES   REMARKS
BAUDETTE       CLOUDY     9   0  67 E7        29.96R WCI  -2
FLAG ISLAND    PTCLDY     9   0  66 E5        30.00R WCI   0
INTL FALLS     CLOUDY     5  -4  66 E9        29.98R WCI  -9
WASKISH        CLOUDY    10   5  79 NE6       29.95R WCI   1
BIG FORK       CLOUDY    12   5  73 NE5       29.92R WCI   4
LONGVILLE      CLOUDY    21  16  79 N6        29.87R WCI  14
GRAND RAPIDS   CLOUDY    21  16  79 E5        29.87R WCI  15
CRANE LAKE     CLOUDY     1  -4  78 CALM      30.01R
ORR            CLOUDY     9  -2  61 CALM      29.91R
COOK           CLOUDY     9   1  72 NE5       29.93R WCI   0
WALKER         CLOUDY    19  11  71 N5        29.88R WCI  12
$$
MNZ012-019>021-037-251000-
   Northeast Minnesota

CITY           SKY/WX    TMP DP  RH WIND       PRES   REMARKS
DULUTH         FLURRIES  19  12  74 E15G22    29.88R WCI   5
ELY            MOCLDY     0  -4  85 NE3       29.94R
HIBBING        CLOUDY    20  11  68 E6        29.89R WCI  12
EVELETH        CLOUDY    18  12  79 CALM      29.90R
DULUTH HARBOR  CLOUDY    23  18  80 NE21G26   29.94R WCI   8
TWO HARBORS    FLURRIES  19  14  79 NE12      29.90R WCI   7
SILVER BAY     FLURRIES  16   9  73 N6        29.92R WCI   7
GRAND MARAIS     N/A      8  -1  66 N6        30.01R WCI  -2
G MARAIS ARPRT FLURRIES  -2  -9  71 N8        29.90R WCI -17
$$
MNZ029>031-032-039>041-046>048-054>057-064-251000-
   West Central Minnesota

CITY           SKY/WX    TMP DP  RH WIND       PRES   REMARKS
FERGUS FALLS   CLOUDY    28  27  93 N6        29.88R WCI  22
WHEATON        MIX PCPN  27  27 100 N12       29.88R WCI  16
MORRIS         CLOUDY    32  30  93 N13       29.82R WCI  22
ALEXANDRIA     CLOUDY    31  27  85 N8        29.82R WCI  23
ELBOW LAKE     CLOUDY    31  29  95 N6        29.84R WCI  25
WADENA         CLOUDY    27  21  80 NE9       29.83R WCI  17
GLENWOOD       CLOUDY    30  30 100 MISG      29.81R
APPLETON       CLOUDY    34  32  93 N12       29.82R WCI  25
BENSON         CLOUDY    34  30  86 NE7       29.81R WCI  28
ORTONVILLE     MIX PCPN  32  30  93 N15       29.83R WCI  22
MADISON        CLOUDY    36  36 100 N10       29.82R
WILLMAR        CLOUDY    34  30  86 NE13      29.80R WCI  25
$$
MNZ033>034-036-042>043-049>051-058-059-251000-
   Central Minnesota

CITY           SKY/WX    TMP DP  RH WIND       PRES   REMARKS
ST CLOUD       CLOUDY    28  22  78 NE10      29.82R WCI  19
SAUK CENTRE    CLOUDY    30  27  88 NE9       29.82R WCI  21
PAYNESVILLE    CLOUDY    29  28  95 N12       29.80R WCI  19
AITKIN         CLOUDY    25  16  68 NE8       29.86R WCI  16
PINE RIVER     CLOUDY    25  19  80 N5        29.89R WCI  19
BRAINERD       CLOUDY    24  19  81 NE9       29.85R WCI  14
STAPLES        CLOUDY    28  25  86 E6        29.83R WCI  22
LONG PRAIRIE   CLOUDY    30  27  86 NE8       29.82R WCI  23
LITTLE FALLS   CLOUDY    28  21  74 NE6       29.84R WCI  22
LITCHFIELD     CLOUDY    30  30 100 NE12      29.79R WCI  21
BUFFALO        CLOUDY    28  24  82 N10G20    29.81R WCI  19
MAPLE LAKE     CLOUDY    30  26  87 NE13G18   29.81R WCI  20
$$
MNZ037-044-045-052-053-251000-
   East Central Minnesota

CITY           SKY/WX    TMP DP  RH WIND       PRES   REMARKS
PRINCETON      CLOUDY    27  21  80 NE10G16   29.82R WCI  17
MORA           CLOUDY    27  19  74 NE9       29.86R WCI  17
CAMBRIDGE      CLOUDY    27  16  63 NE9G16    29.82R WCI  17
RUSH CITY      CLOUDY    23  15  74 NE10G17   29.85R WCI  12
MOOSE LAKE     CLOUDY    21  14  73 E9G17     29.86R WCI  11
HINCKLEY       CLOUDY    25  19  80 NE8       29.85R WCI  16
CLOQUET        FLURRIES  19  12  73 NE16G25   29.88R WCI   5
MCGREGOR       CLOUDY    23  18  80 E7        29.88R WCI  15
$$
MNZ071>073-080-081-089-090-097-098-251000-
   Southwest Minnesota

CITY           SKY/WX    TMP DP  RH WIND       PRES   REMARKS
MONTEVIDEO     LGT SNOW  32  32 100 NE9       29.81R WCI  24
GRANITE FALLS  LGT SNOW  32  32  99 N7        29.81R WCI  26
CANBY          CLOUDY    33  32  97 N8        29.82R FOG     WCI  26
MARSHALL       CLOUDY    32  28  86 N12       29.79R WCI  23
REDWOOD FALLS  CLOUDY    34  32  92 NE7       29.76R WCI  28
OLIVIA         FLURRIES  32  32 100 NE13      29.77R WCI  22
PIPESTONE      CLOUDY    34  32  93 N13G18    29.74R WCI  25
WINDOM         LGT SNOW  34  34 100 N14       29.72R WCI  24
WORTHINGTON    CLOUDY    32  30  93 N17       29.71R WCI  21
JACKSON        LGT SNOW  34  32  93 N15       29.69R WCI  24
TRACY          LGT SNOW  33  33  99 N13       29.75R WCI  24
SLAYTON        LGT SNOW  32  32  99 N16       29.73R WCI  21
$$
MNZ065>067-074>077-082>085-091>093-251000-
   South Central Minnesota

CITY           SKY/WX    TMP DP  RH WIND       PRES   REMARKS
MANKATO        CLOUDY    34  30  86 NE17      29.71R WCI  23
NEW ULM        LGT SNOW  34  32  93 NE12G18   29.74R WCI  25
ST JAMES       LGT SNOW  34  34 100 N12       29.72R WCI  25
FAIRMONT       CLOUDY    34  28  80 N12       29.67R WCI  25
GLENCOE        CLOUDY    32  31  96 NE9G16    29.76R WCI  24
FARIBAULT      CLOUDY    34  32  93 N10       29.72R WCI  26
OWATONNA       MIX PCPN  34  30  86 NE15      29.69R WCI  24
WASECA         LGT SNOW  32  32 100 NE14      29.71R WCI  22
ALBERT LEA     LGT SNOW  34  34 100 NE13      29.65R WCI  25
$$
MNZ078>079-086>088-094>096-251000-
   Southeast Minnesota

CITY           SKY/WX    TMP DP  RH WIND       PRES   REMARKS
ROCHESTER      CLOUDY    33  29  85 NE14      29.67R WCI  23
RED WING       MIX PCPN  32  28  86 NE8G17    29.74R WCI  25
STANTON        RAIN      33  31  94 NE16G24   29.72R WCI  23
DODGE CENTER   CLOUDY    34  32  93 NE10G18   29.67R WCI  26
WINONA         LGT RAIN  36  32  87 NE9       29.72R
AUSTIN         LGT SNOW  34  30  86 NE12      29.65R WCI  25
PRESTON        CLOUDY    32  31  94 NE12      29.65R WCI  23
$$
ABBREVIATIONS USED IN REMARKS
   TC - TEMPERATURES IN CELSIUS
  WCI - WIND CHILL INDEX
   HX - HEAT INDEX
  VSB - VISIBILITY
$$


USA.gov is the U.S. government's official web portal to all federal, state and local government web resources and services.